Stations météo

réclame
Mon MeteoGroup
Javea, Espagne (8370): Température de l'air & dewpoint: 18.01.2018 10:00:00 - 24.01.2018 10:00:00 (CET)Javea, Espagne (8370): Vitesse du vent & gusts: 18.01.2018 10:00:00 - 24.01.2018 10:00:00 (CET)Javea, Espagne (8370): Direction du vent: 18.01.2018 10:00:00 - 24.01.2018 10:00:00 (CET)Javea, Espagne (8370): reduced air pressure: 18.01.2018 10:00:00 - 24.01.2018 10:00:00 (CET)Javea, Espagne (8370): visibility: 18.01.2018 10:00:00 - 24.01.2018 10:00:00 (CET)Javea, Espagne (8370): Ensoleillement: 18.01.2018 10:00:00 - 24.01.2018 10:00:00 (CET)Javea, Espagne (8370): Quantités de précipitations: 18.01.2018 10:00:00 - 24.01.2018 10:00:00 (CET)
Date & Time tt [°C] td [°C] ff [km/h] ff [knt] fx [km/h] fx [knt] dd ppp [hPa] vv [km] sd [min] rr [mm]
24.01.2018 10:00:00 11,2 7,6 7 4 11 6 SW 1029,3 20 47 0,0
24.01.2018 09:00:00 6,6 5,3 8 5 11 6 WSW 1029,1 12 15 0,0
24.01.2018 08:00:00 5,3 3,8 10 5 13 7 WSW 1029,0 20 0 0,0
24.01.2018 07:00:00 6,0 4,6 9 5 14 7 WSW 1028,7 20 0 -
24.01.2018 06:00:00 6,5 5,3 8 5 14 7 WSW 1028,5 20 0 0,0
24.01.2018 05:00:00 5,2 3,8 8 4 12 6 WSW 1028,6 20 0 0,0
24.01.2018 04:00:00 5,8 4,1 7 4 13 7 WSW 1029,0 20 0 0,0
24.01.2018 03:00:00 7,1 5,5 8 5 12 7 WSW 1029,1 20 0 0,0
24.01.2018 02:00:00 7,8 6,1 11 6 14 8 WSW 1028,9 20 0 0,0
24.01.2018 01:00:00 8,0 6,1 9 5 11 6 WSW 1029,1 20 0 -
24.01.2018 00:00:00 9,5 7,6 9 5 14 7 WSW 1029,4 20 0 0,0
23.01.2018 23:00:00 9,6 7,7 8 4 12 7 WSW 1029,1 20 0 0,0
23.01.2018 22:00:00 10,5 8,4 7 4 9 5 W 1028,9 20 0 0,0
23.01.2018 21:00:00 10,0 7,4 5 3 7 4 W 1028,8 19 0 0,0
23.01.2018 20:00:00 10,9 6,8 2 1 5 3 SW 1028,5 20 0 0,0
23.01.2018 19:00:00 13,9 7,8 2 1 8 5 E 1028,0 20 0 -
23.01.2018 18:00:00 16,8 7,7 6 3 9 5 SSE 1027,4 20 41 0,0
23.01.2018 17:00:00 19,9 7,3 7 4 14 7 SW 1027,0 20 60 0,0
23.01.2018 16:00:00 19,9 7,6 6 3 18 10 ESE 1026,8 20 60 0,0
23.01.2018 15:00:00 18,5 9,6 9 5 18 10 NE 1026,6 20 60 0,0
23.01.2018 14:00:00 18,0 10,6 11 6 18 10 NE 1027,2 20 60 0,0
23.01.2018 13:00:00 18,7 9,2 7 4 16 8 ENE 1027,8 20 60 -
23.01.2018 12:00:00 20,2 7,3 3 2 8 4 ENE 1028,1 20 60 0,0
23.01.2018 11:00:00 18,5 7,3 3 2 7 4 E 1028,5 20 60 0,0
23.01.2018 10:00:00 13,4 4,8 6 4 13 7 SW 1028,1 20 48 0,0
23.01.2018 09:00:00 7,7 3,2 9 5 13 7 SW 1027,5 20 16 0,0
23.01.2018 08:00:00 5,7 2,3 10 5 14 7 WSW 1027,0 20 0 0,0
23.01.2018 07:00:00 6,3 2,1 3 1 10 5 NNW 1026,5 20 0 -
23.01.2018 06:00:00 8,5 2,1 2 1 11 6 W 1025,6 20 0 0,0
23.01.2018 05:00:00 11,2 2,5 9 5 13 7 WSW 1025,0 20 0 0,0
23.01.2018 04:00:00 10,6 2,7 8 5 14 8 SW 1025,0 20 0 0,0
23.01.2018 03:00:00 10,6 2,9 9 5 17 9 SSW 1025,0 20 0 0,0
23.01.2018 02:00:00 9,1 2,9 6 4 14 8 SW 1025,0 20 0 0,0
23.01.2018 01:00:00 8,6 3,6 8 5 15 8 SW 1025,0 20 0 -
23.01.2018 00:00:00 8,4 3,9 3 2 8 4 WSW 1025,0 20 0 0,0
22.01.2018 23:00:00 10,7 4,8 4 2 12 6 W 1024,3 20 0 0,0
22.01.2018 22:00:00 11,1 5,0 10 5 15 8 WSW 1024,2 20 0 0,0
22.01.2018 21:00:00 10,8 5,0 11 6 14 8 WSW 1023,9 20 0 0,0
22.01.2018 20:00:00 11,7 5,8 9 5 11 6 SW 1023,5 20 0 0,0
22.01.2018 19:00:00 14,1 5,8 4 2 9 5 W 1023,1 20 0 -
22.01.2018 18:00:00 19,3 5,8 6 3 14 7 SSW 1022,5 20 54 0,0
22.01.2018 17:00:00 22,5 5,5 8 5 16 9 SSW 1022,7 20 60 0,0
22.01.2018 16:00:00 22,3 6,1 7 4 15 8 SE 1022,7 20 60 0,0
22.01.2018 15:00:00 19,9 7,0 9 5 14 7 NNE 1022,9 20 60 0,0
22.01.2018 14:00:00 19,9 10,0 7 4 15 8 ENE 1023,7 20 60 0,0
22.01.2018 13:00:00 21,2 5,5 6 3 11 6 ENE 1024,4 20 60 -
22.01.2018 12:00:00 21,2 4,6 5 3 9 5 NE 1024,8 20 60 0,0
22.01.2018 11:00:00 20,5 5,3 3 2 7 4 ENE 1025,4 20 60 0,0
22.01.2018 10:00:00 15,2 6,2 4 2 11 6 WSW 1024,9 20 47 0,0
22.01.2018 09:00:00 10,3 4,6 5 3 14 8 SW 1024,7 20 14 0,0
22.01.2018 08:00:00 10,5 4,5 8 4 14 8 SW 1024,3 20 0 0,0
22.01.2018 07:00:00 10,4 4,5 8 4 15 8 WSW 1024,3 20 0 -
22.01.2018 06:00:00 11,5 5,1 9 5 18 10 W 1024,0 20 0 0,0
22.01.2018 05:00:00 12,4 5,3 12 7 18 10 W 1024,2 20 0 0,0
22.01.2018 04:00:00 12,0 5,0 3 2 12 7 W 1024,7 20 0 0,0
22.01.2018 03:00:00 11,3 5,1 10 5 15 8 SW 1024,8 20 0 0,0
22.01.2018 02:00:00 12,1 5,3 3 2 10 5 SSW 1025,1 20 0 0,0
22.01.2018 01:00:00 13,1 5,3 3 2 10 5 NNW 1025,4 20 0 -
22.01.2018 00:00:00 13,4 5,6 8 4 15 8 WSW 1025,5 20 0 0,0
21.01.2018 23:00:00 14,7 5,1 9 5 25 13 WSW 1025,3 20 0 0,0
21.01.2018 22:00:00 16,7 5,3 10 5 16 9 W 1025,0 20 0 0,0
21.01.2018 21:00:00 15,3 4,3 8 5 16 9 WSW 1024,4 20 0 0,0
21.01.2018 20:00:00 15,6 4,3 9 5 14 7 WSW 1024,4 20 0 0,0
21.01.2018 19:00:00 17,0 3,9 3 2 9 5 WNW 1023,9 20 0 -
21.01.2018 18:00:00 21,5 3,2 5 3 16 9 W 1023,4 20 50 0,0
21.01.2018 17:00:00 24,3 2,5 9 5 15 8 SW 1023,2 20 60 0,0
21.01.2018 16:00:00 25,4 3,4 7 4 17 9 SSW 1023,1 20 60 0,0
21.01.2018 15:00:00 26,1 3,9 8 4 29 16 WNW 1022,6 20 60 0,0
21.01.2018 14:00:00 25,9 3,8 9 5 29 16 W 1022,8 20 60 0,0
21.01.2018 13:00:00 24,4 3,6 18 10 36 19 WNW 1023,5 20 60 -
21.01.2018 12:00:00 23,2 3,6 15 8 36 20 W 1023,9 20 60 0,0
21.01.2018 11:00:00 21,5 3,6 17 9 35 19 WNW 1023,8 20 60 0,0
21.01.2018 10:00:00 19,9 3,2 17 9 39 21 W 1023,3 20 45 0,0
21.01.2018 09:00:00 16,6 3,2 6 4 24 13 SW 1022,7 20 13 0,0
21.01.2018 08:00:00 16,6 2,7 7 4 33 18 SW 1022,0 20 0 0,0
21.01.2018 07:00:00 17,0 2,3 12 7 36 20 W 1021,6 20 0 -
21.01.2018 06:00:00 17,8 1,3 18 10 40 22 W 1021,5 20 0 0,0
21.01.2018 05:00:00 18,1 1,1 15 8 45 25 WNW 1021,6 20 0 0,0
21.01.2018 04:00:00 17,6 1,1 16 9 41 22 W 1021,9 20 0 0,0
21.01.2018 03:00:00 18,3 0,4 20 11 45 24 W 1022,4 20 0 0,0
21.01.2018 02:00:00 18,7 -0,3 17 9 36 20 W 1022,3 20 0 0,0
21.01.2018 01:00:00 - - - - - - - - - - -
21.01.2018 00:00:00 18,4 -1,4 22 12 43 23 W 1022,9 20 0 0,0
20.01.2018 23:00:00 18,9 -2,7 23 12 51 27 WNW 1022,9 20 0 0,0
20.01.2018 22:00:00 18,3 -2,7 16 9 36 19 W 1022,6 20 0 0,0
20.01.2018 21:00:00 18,2 -2,7 15 8 36 19 W 1022,3 20 0 0,0
20.01.2018 20:00:00 18,0 -3,0 15 8 27 14 W 1022,2 20 0 0,0
20.01.2018 19:00:00 17,4 -1,7 12 6 20 11 W 1021,6 20 0 -
20.01.2018 18:00:00 16,4 4,1 2 1 11 6 SW 1021,3 20 42 0,0
20.01.2018 17:00:00 20,4 3,6 7 4 18 10 SSW 1021,5 20 60 0,0
20.01.2018 16:00:00 20,8 4,3 8 5 21 12 SW 1021,7 20 60 0,0
20.01.2018 15:00:00 20,6 3,8 8 4 18 10 SSW 1022,4 20 60 0,0
20.01.2018 14:00:00 19,9 5,9 5 3 26 14 S 1023,5 20 60 0,0
20.01.2018 13:00:00 19,0 6,8 13 7 24 13 SSW 1024,3 20 60 -
20.01.2018 12:00:00 18,7 4,1 7 4 18 10 SSW 1025,3 20 60 0,0
20.01.2018 11:00:00 13,8 4,3 4 2 15 8 W 1025,8 20 44 0,0
20.01.2018 10:00:00 9,8 3,6 5 3 13 7 WSW 1025,4 20 23 0,0
20.01.2018 09:00:00 8,7 2,7 8 4 12 7 W 1025,0 17 12 0,0
20.01.2018 08:00:00 7,5 1,7 6 3 14 8 WSW 1025,1 20 0 0,0
20.01.2018 07:00:00 11,5 2,9 11 6 20 11 NW 1024,3 20 0 -
20.01.2018 06:00:00 11,8 2,3 11 6 20 11 NNW 1024,0 20 0 0,0
20.01.2018 05:00:00 9,5 2,9 8 4 16 9 NNW 1023,3 20 0 0,0
20.01.2018 04:00:00 7,2 2,3 3 2 13 7 SSW 1023,5 20 0 0,0
20.01.2018 03:00:00 11,8 3,6 9 5 17 9 N 1023,0 20 0 0,0
20.01.2018 02:00:00 9,1 4,1 10 6 23 13 WNW 1023,3 20 0 0,0
20.01.2018 01:00:00 - - - - - - - - - - -
20.01.2018 00:00:00 6,8 3,8 8 5 13 7 WSW 1022,9 20 0 0,0
19.01.2018 23:00:00 8,8 5,8 10 5 15 8 W 1022,7 20 0 0,0
19.01.2018 22:00:00 7,5 5,8 8 5 13 7 WSW 1022,1 17 0 0,0
19.01.2018 21:00:00 7,1 5,3 5 3 9 5 W 1021,6 8 0 0,0
19.01.2018 20:00:00 8,0 5,5 5 3 10 5 WSW 1021,1 8 0 0,0
19.01.2018 19:00:00 10,8 7,3 6 3 10 5 WSW 1020,3 12 0 -
19.01.2018 18:00:00 13,6 9,0 1 1 9 5 WSW 1019,8 20 8 0,0
19.01.2018 17:00:00 14,9 8,7 5 3 12 7 NE 1019,4 20 0 0,0
19.01.2018 16:00:00 16,3 7,6 5 3 13 7 ENE 1019,0 20 52 0,0
19.01.2018 15:00:00 19,4 6,5 4 2 9 5 S 1018,9 20 60 0,0
19.01.2018 14:00:00 16,4 8,1 1 1 7 4 ENE 1019,6 20 0 0,0
19.01.2018 13:00:00 16,0 7,7 3 1 12 6 ENE 1020,2 20 8 -
19.01.2018 12:00:00 15,4 8,1 3 2 13 7 NW 1020,9 20 44 0,0
19.01.2018 11:00:00 11,8 8,3 7 4 12 6 W 1021,2 19 31 0,0
19.01.2018 10:00:00 8,9 7,0 7 4 10 6 SW 1020,7 15 0 0,0
19.01.2018 09:00:00 7,2 5,3 5 3 13 7 WSW 1020,0 14 0 0,0
19.01.2018 08:00:00 7,6 5,6 9 5 15 8 W 1019,6 20 0 0,0
19.01.2018 07:00:00 6,8 5,3 8 5 13 7 SW 1019,1 20 0 -
19.01.2018 06:00:00 6,4 4,5 3 2 10 5 WNW 1019,2 20 0 0,0
19.01.2018 05:00:00 7,8 5,5 6 4 14 7 WSW 1019,4 20 0 0,0
19.01.2018 04:00:00 7,6 5,8 9 5 11 6 WSW 1019,1 19 0 0,0
19.01.2018 03:00:00 7,7 5,6 5 3 10 5 WSW 1019,7 17 0 0,0
19.01.2018 02:00:00 8,6 6,7 5 3 9 5 W 1020,3 18 0 0,0
19.01.2018 01:00:00 8,4 6,5 8 4 14 8 W 1020,7 16 0 -
19.01.2018 00:00:00 8,2 6,4 8 4 11 6 WSW 1021,3 13 0 0,0
18.01.2018 23:00:00 9,4 7,8 7 4 11 6 W 1021,2 15 0 0,0
18.01.2018 22:00:00 8,7 7,0 6 3 13 7 W 1021,1 13 0 0,0
18.01.2018 21:00:00 9,0 7,3 7 4 9 5 W 1022,2 12 0 0,0
18.01.2018 20:00:00 9,5 6,7 6 3 11 6 WSW 1022,4 13 0 0,0
18.01.2018 19:00:00 11,2 7,8 7 4 11 6 W 1022,4 16 0 -
18.01.2018 18:00:00 13,8 8,3 1 1 8 4 S 1022,7 20 39 0,0
18.01.2018 17:00:00 16,0 8,9 5 3 12 6 ESE 1022,6 20 60 0,0
18.01.2018 16:00:00 16,4 8,1 6 4 13 7 NE 1022,5 20 60 0,0
18.01.2018 15:00:00 17,6 7,8 8 4 20 11 N 1023,0 20 60 0,0
18.01.2018 14:00:00 17,1 8,0 14 7 28 15 NNW 1024,0 20 60 0,0
18.01.2018 13:00:00 16,7 8,4 14 8 24 13 NNW 1025,2 20 60 -
18.01.2018 12:00:00 16,4 8,4 13 7 21 12 NNW 1026,5 19 60 0,0
18.01.2018 11:00:00 15,3 8,3 4 2 13 7 W 1027,0 20 60 0,0
18.01.2018 10:00:00 11,8 7,7 8 4 15 8 W 1026,8 20 44 0,0

tt = Température de l'air
td = dewpoint
ff = Vitesse du vent
fx = gusts
dd = Direction du vent
ppp = reduced air pressure
vv = visibility
sd = Ensoleillement
rr = Quantités de précipitations

stations d'obs. à proximité